Home > Weather > Dover > Past weeks

Flag for USA Past Weather in Dover, Delaware, USA — Yesterday and Last 2 Weeks

Now
67 °F

Sunny.


Feels Like: 67 °F
Forecast: 57 / 78 °F
Wind: 6 mph from West

Location: Dover Air Force Base

Current Time: May 24, 2016 at 11:46:36 AM

Latest Report: May 24, 2016 at 10:58 AM


Visibility: 10 mi

Pressure: 29.95 "Hg

Humidity: 80%

Dew Point: 60 °F

Location of DoverLocation

Past Weather in Dover — Graph

°F

Dover Temperature Yesterday

Maximum temperature yesterday: 69 °F (at 12:58 PM)
Minimum temperature yesterday: 56 °F (at 2:58 AM)
Average temperature yesterday: 61 °F

High & Low Weather Summary for the Past Weeks

 TemperatureHumidityPressure
High76 °F (May 20, 3:58 PM)100% (May 10, 1:58 AM)30.28 "Hg (May 10, 1:58 AM)
Low41 °F (May 16, 5:58 AM)28% (May 16, 4:58 PM)29.66 "Hg (May 14, 4:58 PM)
Average59 °F83%30.03 "Hg
* Reported May 9 9:58 AM — May 24 9:58 AM, Dover, Weather by CustomWeather, © 2016

Note: Actual official high and low records may vary slightly from our data, if they occured in-between our weather recording intervals... More about our weather records

Advertising

Dover Weather History for the Previous 24 Hours

Scroll right to see more
 ConditionsComfort  
Time TempWeatherWind HumidityBarometerVisibility
9:58 AM
Tue, May 24
65 °FScattered clouds.9 mph80%29.93 "Hg10 mi
8:58 AM65 °FPassing clouds.10 mph84%29.92 "Hg10 mi
7:58 AM61 °FPassing clouds.6 mph100%29.94 "Hg10 mi
6:58 AM59 °FPassing clouds.7 mph100%29.92 "Hg10 mi
5:58 AM58 °FPassing clouds.7 mph100%29.91 "Hg10 mi
4:58 AM58 °FPartly cloudy.5 mph100%29.90 "Hg10 mi
3:58 AM57 °FPassing clouds.3 mph100%29.91 "Hg10 mi
2:58 AM57 °FPartly cloudy.7 mph100%29.91 "Hg10 mi
1:58 AM57 °FMostly cloudy.6 mph100%29.93 "Hg10 mi
1:03 AM59 °FMostly cloudy.3 mph100%29.93 "Hg10 mi
12:58 AM59 °FLight rain. Partly cloudy.3 mph100%29.94 "Hg10 mi
11:58 PM
Mon, May 23
59 °FMostly cloudy.5 mph79%29.95 "Hg10 mi
10:58 PM59 °FPassing clouds.8 mph78%29.95 "Hg10 mi
9:58 PM60 °FMostly cloudy.10 mph96%29.93 "Hg10 mi
8:58 PM60 °FPartly sunny.7 mph88%29.91 "Hg10 mi
7:58 PM62 °FPartly sunny.5 mph79%29.92 "Hg10 mi
6:58 PM63 °FScattered clouds.6 mph79%29.91 "Hg10 mi
5:58 PM65 °FPassing clouds.12 mph77%29.90 "Hg10 mi
4:58 PM66 °FPassing clouds.12 mph76%29.85 "Hg10 mi
3:58 PM65 °FPassing clouds.8 mph90%29.89 "Hg10 mi
2:58 PM61 °FLight rain. Broken clouds.10 mph94%29.87 "Hg10 mi
1:58 PM69 °FBroken clouds.1 mph67%29.88 "Hg10 mi
12:58 PM69 °FPassing clouds.6 mph67%29.89 "Hg10 mi
11:58 AM68 °FPassing clouds.8 mph71%29.90 "Hg10 mi
Weather by CustomWeather, © 2016

See weather overviewHow to use our weather pages